Location: ?????
(32.7281°N, 34.9563°E)
Time: 18:16:32
(UTC+00:00)

Cosmos 1892 - Pass Details

Date: 29 October 2020
Orbit: 504 x 524 km, 82.5° (Epoch: 30 November)

Event Time Altitude Azimuth Distance (km) Brightness Sun altitude
Rises 15:22:43 0° 9° (N) 2,659 6.1 -7.1°
Reaches altitude 10° 15:25:11 10° 24° (NNE) 1,767 5.1 -7.7°
Maximum altitude 15:28:21 24° 78° (ENE) 1,128 3.8 -8.3°
Drops below altitude 10° 15:31:29 10° 133° (SE) 1,755 5.0 -9.0°
Sets 15:33:55 0° 148° (SSE) 2,637 6.1 -9.5°
